Theta_e
291 292 294 294 295 295 299 298 301 308 311 312 311 312 312 312 313 314 310 310 309 311 309 306 306 303 299 299 298 296 296 295 290 289 287 287 284 286 285 287 290 292 293 289 285 290 293 300 301 303 303 304 305 303
290 291 293 294 294 294 296 298 300 303 311 311 312 311 311 314 314 314 307 308 308 307 305 304 301 303 306 306 299 298 297 296 296 290 287 285 285 285 282 287 290 290 292 291 293 294 296 302 303 305 304 306 305 304
290 291 292 292 292 293 294 297 300 303 310 311 312 311 311 311 313 314 308 308 303 304 301 301 300 301 301 301 300 298 296 297 297 295 292 288 287 290 286 288 288 290 293 293 291 294 295 299 305 303 304 305 305 304
289 289 291 292 291 292 294 296 300 304 309 310 311 312 312 310 311 312 307 309 305 303 302 300 301 300 301 300 299 298 297 297 297 296 295 288 287 292 290 291 292 292 292 289 290 293 294 296 300 305 304 304 304 304
289 289 290 291 291 291 292 296 300 305 308 310 311 311 312 311 311 312 306 307 306 306 301 296 300 300 299 299 299 298 297 297 297 297 289 290 292 291 291 289 290 292 291 293 294 297 298 299 300 300 302 304 303 304
288 289 290 290 290 290 290 294 299 303 307 311 310 309 311 311 311 305 301 301 303 305 303 295 294 296 297 297 299 298 297 296 297 297 295 294 295 293 286 287 292 297 297 298 298 298 299 299 299 299 299 299 302 303
288 289 290 290 290 290 290 291 296 303 307 310 310 309 311 311 310 305 304 304 301 303 305 291 291 293 295 296 297 296 296 296 296 296 294 295 295 294 281 291 295 298 298 298 298 297 296 297 298 298 299 298 298 301
288 289 289 290 290 290 289 290 295 302 304 308 309 308 311 310 310 305 306 305 302 303 301 293 291 292 294 295 294 296 296 296 295 294 292 291 291 289 289 292 296 297 298 299 299 298 298 298 297 297 297 297 297 298
288 288 289 289 289 289 288 289 294 299 304 308 308 309 310 306 304 301 301 301 299 301 294 291 292 293 294 294 294 294 295 294 293 290 289 290 282 289 291 296 297 298 298 299 299 298 298 297 297 297 297 297 297 297
288 288 288 289 289 288 288 288 293 296 302 306 309 309 299 300 299 299 297 297 299 298 295 291 292 291 294 293 293 293 295 294 294 289 289 287 290 293 296 298 298 299 301 298 297 297 298 298 297 298 297 297 297 297
288 288 288 288 288 289 288 289 291 293 300 305 304 297 296 296 300 299 296 297 296 295 294 291 291 292 292 293 291 293 293 291 294 287 287 284 287 288 300 300 302 300 298 300 301 300 300 300 300 299 298 298 297 297
286 286 286 286 287 288 289 289 291 292 294 299 303 295 296 298 296 296 296 296 295 294 291 287 291 293 293 295 292 291 292 289 294 287 289 288 288 302 301 301 301 298 297 298 299 299 299 299 299 298 298 298 298 298
286 286 286 286 286 287 288 290 291 293 295 299 297 296 296 296 296 294 296 294 293 290 290 291 290 292 293 293 289 289 291 291 287 288 286 287 292 301 299 299 299 298 298 298 297 298 297 298 298 298 298 298 298 298
286 286 286 286 286 287 289 290 291 292 295 297 295 294 296 295 293 291 291 290 292 292 291 293 287 291 291 290 289 292 285 286 287 285 287 285 297 301 299 297 297 298 298 298 298 298 298 298 298 298 297 298 297 298
286 286 285 286 286 287 288 291 292 294 296 296 296 296 295 287 286 292 291 291 291 292 293 291 290 290 288 289 288 284 284 286 286 291 289 292 294 295 296 298 297 297 298 298 299 299 299 298 297 297 297 295 296 297
286 286 285 286 285 287 289 291 292 292 296 296 294 291 288 288 285 289 290 291 293 294 296 295 289 293 292 290 287 291 293 291 291 285 293 292 293 293 294 295 296 297 298 297 298 298 298 297 297 296 295 294 295 295
286 285 285 286 287 289 290 291 294 296 297 296 292 291 293 293 292 292 292 293 294 297 291 289 292 292 288 292 290 288 290 289 293 291 291 292 291 292 293 293 294 296 297 297 297 297 296 295 295 296 295 294 294 294
286 286 287 286 289 290 291 293 295 293 291 291 290 290 291 293 291 292 293 293 296 298 293 294 289 286 290 291 290 287 289 289 291 292 290 290 290 290 291 293 293 295 295 296 295 296 295 294 295 295 294 293 293 294
286 288 288 288 290 292 294 294 293 290 290 289 290 291 292 292 293 294 294 295 297 296 296 294 294 294 288 280 278 280 281 285 287 288 289 288 289 290 291 292 294 294 294 294 294 294 294 294 293 293 293 293 293 293
286 286 288 289 290 292 291 291 292 291 291 291 291 290 291 292 293 293 294 294 296 296 292 284 277 272 275 275 277 278 281 283 286 287 287 286 287 289 290 291 291 293 292 291 292 292 292 292 292 292 291 292 292 293
285 286 288 289 291 290 289 289 290 291 291 291 291 291 292 293 293 293 292 294 293 267 268 269 269 271 273 274 277 279 280 279 282 285 284 287 287 288 288 288 288 290 291 289 290 290 291 291 290 290 291 291 290 290
286 287 289 289 290 288 287 287 290 291 291 291 290 291 292 292 291 290 290 280 264 262 267 268 269 271 272 275 276 277 279 279 280 282 282 283 284 286 287 286 286 286 288 290 290 289 289 289 289 289 290 290 290 290
288 288 287 287 287 287 284 286 286 286 289 287 286 285 281 282 282 284 265 264 263 264 266 268 269 271 272 274 275 276 277 278 279 280 281 281 283 285 284 284 285 285 286 287 288 288 288 288 289 289 288 288 289 290
286 280 273 271 272 276 280 277 280 281 281 281 282 282 277 279 281 272 264 262 261 264 266 268 270 271 273 273 274 276 277 277 277 279 280 280 282 282 282 284 284 284 284 285 286 287 286 287 287 287 288 288 288 288
277 263 265 263 265 271 273 272 271 277 276 272 276 276 275 276 274 268 264 260 261 263 265 266 268 270 271 271 273 274 275 276 276 278 279 279 279 280 280 281 282 283 283 283 284 285 286 286 287 287 286 286 287 287
261 259 260 257 260 264 263 269 264 263 268 272 266 264 270 275 276 265 259 258 259 260 262 264 266 267 268 269 271 272 273 274 274 275 277 278 278 278 279 279 279 280 281 282 282 281 282 283 284 285 285 285 285 285
259 257 259 260 259 260 261 260 259 260 260 261 259 260 267 270 263 259 258 258 259 260 262 262 263 265 267 268 269 270 271 272 272 273 274 275 275 275 276 276 277 277 278 278 278 279 280 281 281 281 282 283 283 283
259 259 259 259 257 258 258 258 257 255 255 257 258 258 262 259 259 257 258 259 260 261 262 262 263 264 266 267 267 268 268 269 269 270 270 271 272 272 273 274 274 275 275 276 277 277 278 279 279 279 279 280 280 280
261 260 260 257 257 257 256 256 256 257 257 257 257 258 255 257 258 258 259 259 260 261 262 262 263 264 265 266 266 267 267 268 269 269 269 270 270 270 271 272 273 273 274 274 274 275 276 277 277 277 277 277 277 277
260 260 260 258 257 257 259 258 259 258 257 257 258 258 258 258 258 259 259 260 261 261 262 263 263 264 264 265 265 266 266 267 268 268 269 269 269 270 270 270 271 272 273 273 273 273 274 274 275 275 275 275 275 275
261 262 261 260 258 260 260 260 260 260 260 259 259 259 259 259 259 260 260 261 261 261 261 262 262 263 264 264 265 265 265 265 266 266 267 268 268 268 269 269 269 270 271 271 272 272 273 272 272 273 273 273 273 273
262 260 260 257 259 261 261 261 261 261 261 260 260 260 260 260 260 260 260 260 261 261 262 262 262 262 263 263 263 264 264 265 265 265 265 266 266 267 268 268 269 269 269 270 270 270 271 271 271 271 271 271 271 271
261 261 261 260 259 260 260 260 262 261 261 260 260 260 260 260 260 261 261 261 261 261 262 262 262 262 262 262 263 263 263 264 264 265 265 266 267 267 267 268 268 269 269 269 269 269 269 269 270 270 270 269 269 269
Wind_Speed
32 32 25 25 27 34 32 33 45 55 44 49 50 52 52 50 50 55 53 49 41 16 17 29 27 19 18 18 5 12 7 3 3 2 4 4 3 6 2 4 6 8 8 5 3 1 8 14 9 7 5 4 20 28
32 30 26 28 31 31 33 33 39 54 43 49 49 49 46 57 58 55 38 48 43 15 9 28 29 25 28 30 26 31 4 10 15 3 1 3 2 2 3 3 1 3 7 5 9 7 4 34 5 20 7 7 17 26
34 34 29 27 28 27 33 35 35 39 47 52 50 51 50 50 57 51 51 41 39 19 4 20 24 27 28 24 25 13 9 11 10 8 10 3 3 4 4 6 2 5 9 3 3 4 20 19 34 11 19 12 14 23
35 36 32 28 28 27 23 37 38 34 48 52 52 51 51 50 48 49 52 47 43 15 6 8 23 27 28 26 27 20 8 17 10 12 4 3 3 11 3 2 3 5 13 6 6 14 16 22 32 34 27 19 16 20
34 37 34 32 33 28 26 37 35 30 47 54 53 52 52 49 48 50 50 49 49 34 9 7 20 25 30 31 29 21 13 18 14 8 3 3 5 4 1 1 4 13 8 6 8 15 8 9 16 33 35 35 27 24
34 35 32 30 32 33 29 28 30 33 39 56 55 53 51 49 46 54 15 33 51 35 9 4 5 17 25 28 32 27 14 14 9 5 5 6 6 7 4 4 9 31 33 36 27 22 19 15 10 10 23 32 34 31
33 35 29 29 29 29 32 28 27 29 28 57 54 54 51 49 61 55 15 20 49 34 9 5 3 7 17 20 20 18 19 9 7 4 5 4 6 7 2 7 7 17 23 31 36 34 26 29 20 18 17 17 27 33
31 31 27 26 25 26 30 29 31 36 24 47 55 50 49 45 56 49 34 15 40 35 9 5 2 7 21 7 6 14 9 7 3 3 3 4 4 3 6 17 28 34 34 34 37 34 37 33 22 26 26 22 26 33
30 31 28 25 23 23 26 29 35 19 17 44 51 46 43 40 33 28 21 26 41 14 12 5 8 6 17 7 8 6 7 3 4 3 5 8 3 8 10 27 33 35 36 36 29 30 39 41 37 34 27 30 32 33
29 29 27 25 24 23 23 30 37 21 29 37 48 28 13 16 38 38 22 12 11 5 6 3 10 4 15 7 5 8 6 3 3 5 7 4 7 26 25 37 38 32 30 39 38 34 32 37 46 44 41 36 31 33
25 24 24 24 22 22 23 26 31 36 22 37 21 8 35 47 25 10 9 6 7 4 11 9 9 8 11 4 3 5 3 4 3 3 4 3 5 7 39 58 61 65 53 47 43 38 31 30 36 38 42 40 37 34
23 22 22 24 24 23 23 23 23 21 19 10 26 39 39 11 7 6 4 6 5 8 13 10 10 10 10 8 6 7 3 2 4 10 2 5 5 28 29 32 35 36 41 45 53 58 49 37 29 30 29 30 36 37
23 22 21 20 19 22 21 21 21 20 34 35 17 14 12 7 5 10 11 5 5 10 16 20 8 9 8 6 7 3 4 4 13 2 5 6 17 16 17 18 15 11 18 31 35 35 40 48 47 35 31 25 21 31
23 22 22 23 19 20 23 19 20 23 22 8 8 8 6 7 7 6 5 8 11 20 37 34 13 7 6 4 3 5 2 4 2 3 9 3 26 22 19 16 12 9 8 15 18 21 25 29 36 46 51 40 28 26
24 23 24 26 25 22 23 18 19 50 13 6 9 6 6 4 8 16 25 22 19 38 40 19 11 9 2 5 2 4 3 5 8 7 3 6 11 11 11 12 13 12 12 15 12 15 17 20 24 28 34 43 39 32
24 24 28 27 26 26 20 17 15 34 7 5 5 6 10 6 2 11 21 28 39 44 36 9 5 4 3 6 5 8 10 8 4 4 9 5 6 7 7 6 7 8 11 15 15 16 17 20 21 22 23 33 39 35
23 27 29 27 30 23 20 17 13 9 4 5 2 9 12 14 15 17 29 30 47 38 5 4 6 6 6 4 6 6 7 4 7 7 5 8 10 10 9 8 6 6 11 15 15 14 16 18 20 21 25 30 34 31
24 29 23 29 22 17 16 18 7 3 3 4 1 12 7 27 32 28 22 47 38 23 13 5 12 4 7 8 4 3 10 6 5 4 4 3 4 8 10 10 8 9 9 11 11 11 13 14 16 16 17 22 27 28
19 21 19 21 24 9 4 3 4 4 1 3 10 12 12 27 26 34 45 48 27 15 23 8 4 5 4 3 2 4 6 5 5 6 5 8 9 10 12 13 12 10 11 9 8 7 8 9 8 10 14 18 21 21
13 14 20 7 17 2 6 6 6 5 2 4 11 11 11 12 29 34 38 23 25 11 4 3 1 3 4 5 3 4 3 1 4 3 2 4 6 9 10 11 11 9 8 8 7 5 4 5 9 11 12 13 14 15
6 10 7 4 5 4 5 4 4 5 7 8 12 9 11 21 24 31 14 17 8 6 3 5 5 6 7 5 5 4 3 1 1 1 3 4 6 6 6 7 7 6 6 5 3 1 3 7 8 9 11 12 12 13
7 9 5 4 5 5 7 5 5 7 6 7 6 7 7 4 7 7 9 11 7 7 4 3 5 6 5 5 5 3 2 2 3 2 3 5 3 3 5 6 6 6 5 4 1 3 5 8 10 11 12 13 13 14
6 5 4 6 4 5 1 5 3 6 4 3 4 4 4 3 4 8 7 6 5 6 5 4 4 6 6 6 5 3 2 2 2 1 1 3 3 5 4 5 6 6 5 4 2 3 6 8 9 8 9 10 11 12
2 6 10 9 14 3 4 7 6 6 7 4 3 3 3 3 3 6 4 3 6 5 4 5 4 5 4 3 3 4 3 2 2 3 1 0 2 3 3 4 5 4 3 2 1 2 5 7 8 8 9 9 10 10
5 13 10 9 11 7 7 6 8 5 4 4 4 3 3 5 3 3 2 3 5 5 5 4 3 3 2 1 1 2 3 3 3 3 4 3 1 1 2 2 3 4 2 1 1 2 4 5 7 8 8 9 8 10
10 12 8 8 9 6 5 4 6 6 4 4 5 7 5 2 3 3 2 7 4 5 6 5 4 2 1 3 3 4 4 5 5 4 5 5 4 4 3 2 2 3 3 3 4 5 6 6 7 8 9 9 9 9
7 6 11 13 6 6 6 7 6 5 6 6 5 6 3 4 3 1 3 7 6 5 5 4 3 3 4 3 3 3 4 3 3 2 2 2 2 3 3 4 4 3 2 3 4 6 6 7 8 8 8 9 10 10
8 12 6 13 9 11 3 4 5 5 4 9 5 6 3 3 1 3 3 7 6 4 2 1 2 2 2 1 0 1 3 3 3 2 2 2 1 1 2 2 2 2 3 3 4 5 5 6 6 7 7 8 8 9
8 15 6 6 7 12 11 5 4 6 9 5 2 2 1 2 4 4 4 5 4 3 1 2 1 3 4 3 0 3 5 5 4 1 1 1 1 1 1 1 1 2 3 3 3 4 4 5 5 5 6 5 5 6
9 13 4 4 4 4 6 5 3 4 6 4 4 4 3 3 5 6 6 5 4 3 3 2 1 1 2 2 2 1 2 3 4 5 5 4 4 4 4 3 3 3 3 3 4 3 2 3 3 4 5 5 5 5
9 7 5 7 5 3 2 1 2 5 5 6 7 4 3 2 4 9 9 7 5 5 4 2 1 1 0 2 2 2 2 2 2 2 2 3 4 4 4 4 4 3 3 3 2 2 3 3 4 4 4 4 4 3
12 11 4 4 3 6 5 4 3 3 4 4 6 6 4 4 3 4 7 7 6 4 3 3 2 2 2 3 3 3 2 2 2 1 2 2 3 3 3 3 2 1 1 1 2 3 4 4 4 4 4 4 3 2
5 8 7 4 5 7 13 9 5 3 5 4 6 5 4 3 2 4 5 7 6 5 4 2 1 1 1 3 3 3 3 2 2 1 1 2 3 1 1 0 0 1 1 2 2 3 3 3 3 4 3 3 3 3
Wind_Direction
244 241 235 238 240 232 244 248 229 218 228 223 223 223 229 229 226 226 219 216 203 205 197 199 202 171 164 177 154 149 109 194 83 150 155 208 153 215 109 177 177 168 163 198 132 147 284 164 125 177 209 186 192 194
246 244 240 241 240 235 245 244 232 222 224 224 223 222 223 228 226 226 211 217 215 218 200 198 205 210 214 215 191 171 202 163 170 115 228 102 151 130 166 238 163 240 190 179 193 214 243 183 213 202 196 190 193 196
240 241 242 244 245 242 242 238 229 234 220 222 220 220 221 222 225 223 211 217 199 208 195 196 203 202 201 204 205 177 212 180 193 180 157 171 191 136 169 238 170 238 187 213 45 257 233 228 223 229 227 223 208 203
237 239 240 236 243 242 248 235 226 235 217 221 220 218 217 220 224 228 207 217 206 189 184 207 209 203 205 204 206 211 213 192 186 182 161 149 168 193 208 212 193 191 146 182 265 274 264 270 232 234 230 226 214 207
237 234 237 236 239 251 254 232 228 227 216 219 218 216 216 216 219 223 209 217 214 194 165 169 200 210 207 203 200 205 210 201 179 171 136 217 177 143 138 73 229 189 182 175 225 214 203 246 248 237 229 226 223 216
236 232 229 231 236 246 258 248 232 227 223 212 214 214 213 213 215 190 196 211 207 195 155 159 164 194 201 203 204 200 203 210 201 194 195 212 199 190 173 220 245 219 222 233 238 252 254 255 253 242 233 233 225 223
234 226 222 226 234 244 253 259 238 221 220 208 210 211 208 207 208 192 200 209 197 190 181 104 145 157 177 190 189 187 198 217 215 215 218 191 189 207 176 236 204 228 234 242 246 250 256 246 246 250 241 239 233 230
228 219 217 222 229 243 249 255 238 217 230 201 206 205 205 208 210 194 203 185 189 184 171 139 128 147 169 155 133 178 174 194 260 255 189 192 178 220 252 240 246 243 248 253 252 249 251 253 255 243 241 241 235 225
223 221 217 224 229 236 245 252 239 217 213 198 195 196 198 186 183 191 176 159 172 181 161 149 151 180 164 136 135 135 140 143 221 242 234 170 214 228 222 229 236 238 235 240 251 247 248 249 247 241 241 240 237 232
219 215 216 220 226 233 240 249 239 233 213 193 186 181 149 161 170 150 134 147 160 181 130 147 131 148 155 145 135 130 155 172 198 227 169 211 251 243 242 257 257 248 249 244 245 244 239 244 240 237 236 238 240 236
207 209 212 218 222 232 240 244 245 245 208 190 166 130 139 146 141 151 130 161 162 158 174 149 156 138 162 131 134 171 155 153 206 234 171 257 265 235 243 247 253 252 247 245 250 255 260 259 256 245 238 237 237 235
205 209 215 221 225 231 238 246 248 248 244 197 152 133 140 155 118 141 152 142 190 202 158 138 139 118 128 136 119 170 131 146 214 144 201 264 248 250 246 249 259 253 250 254 249 248 252 252 252 254 247 240 239 236
208 217 228 238 239 234 236 246 243 247 136 130 131 158 148 172 121 164 177 199 173 140 156 147 136 151 130 112 99 131 152 183 131 142 229 233 259 269 278 281 271 269 256 252 252 250 248 247 247 246 247 243 240 237
218 223 233 244 245 231 235 240 236 219 194 219 135 142 160 176 203 183 160 146 164 148 147 138 116 124 118 110 136 136 62 130 169 233 234 240 235 244 268 285 289 288 287 257 259 254 253 250 246 244 243 242 240 240
223 231 238 240 249 240 233 231 244 190 238 177 129 159 185 139 78 148 126 115 129 141 144 129 87 105 130 110 90 120 106 228 216 230 231 253 251 272 274 289 290 283 281 273 258 247 242 244 248 247 240 235 235 234
226 237 232 227 236 234 237 218 238 211 267 197 129 109 128 88 94 127 125 126 146 144 147 123 126 124 131 128 148 205 161 221 238 215 240 271 287 284 283 299 309 290 269 276 269 253 248 246 252 252 242 226 225 228
221 225 220 218 220 224 227 228 181 199 240 177 175 148 119 123 149 141 140 143 155 148 153 137 122 171 120 166 189 183 216 206 204 199 241 270 287 308 314 305 311 306 290 285 276 265 253 247 241 240 233 222 218 221
212 219 216 212 196 192 200 179 194 156 51 40 114 150 126 141 139 142 141 153 152 172 139 148 133 154 172 175 225 226 214 188 200 198 204 239 307 328 332 332 339 326 314 298 283 275 262 255 255 248 225 213 217 218
139 147 165 188 186 203 154 112 70 74 294 111 92 86 109 133 147 151 153 161 166 145 128 132 150 182 193 177 170 192 172 175 200 219 253 284 302 314 319 319 314 310 305 296 285 265 252 249 242 225 214 214 219 219
150 182 184 216 214 254 105 87 112 172 142 90 84 74 94 114 134 141 147 151 155 157 82 39 50 39 61 110 144 145 130 224 258 263 243 279 309 320 320 321 316 307 303 294 287 278 260 231 211 200 204 212 220 216
168 205 197 235 143 90 96 133 76 68 71 65 91 74 78 102 123 142 127 140 142 40 57 41 66 92 105 91 97 119 124 267 327 46 311 314 322 332 336 331 325 327 311 289 286 284 181 176 192 198 195 196 201 205
182 199 206 115 82 74 68 55 116 119 87 100 61 64 91 98 112 128 112 61 55 50 57 91 95 98 101 96 96 91 85 13 41 51 349 344 354 61 23 1 0 358 352 356 316 174 175 191 196 200 204 203 205 208
180 196 48 52 103 78 45 22 74 31 81 61 50 58 30 68 74 115 72 60 76 52 79 83 92 95 85 82 78 59 62 60 332 283 224 284 16 49 23 10 10 360 354 12 44 175 180 185 191 206 216 214 211 209
159 47 27 26 24 43 15 26 37 52 59 47 62 73 19 53 81 55 80 58 30 47 81 84 120 119 119 106 81 60 48 51 7 337 315 344 48 45 26 29 17 343 337 343 349 137 186 200 203 201 209 216 213 205
85 14 14 1 8 19 33 25 8 30 71 23 74 45 11 2 78 61 82 18 22 37 52 66 87 113 157 114 22 12 356 337 325 325 329 339 355 350 348 20 15 320 304 242 194 186 207 205 201 196 193 197 199 200
65 23 37 359 5 31 359 54 30 15 7 57 36 328 333 56 69 78 20 347 351 7 16 15 7 15 5 347 324 310 317 309 300 307 307 305 303 293 286 308 290 292 276 248 225 208 194 188 186 184 188 192 196 204
45 342 12 24 16 21 52 53 45 55 52 25 349 342 355 72 58 358 347 356 0 354 359 359 358 342 327 327 320 320 330 335 316 315 336 333 305 266 256 254 256 257 231 214 216 216 205 197 195 194 197 193 195 203
53 31 36 1 44 35 91 58 39 31 0 340 297 20 58 36 24 327 329 350 358 6 28 66 42 10 354 326 232 168 154 143 119 96 75 39 15 334 246 233 227 226 233 225 225 227 220 210 205 205 205 203 196 196
36 0 20 26 37 40 37 37 25 12 347 336 8 42 62 60 356 359 12 20 36 52 107 156 98 43 39 46 68 223 228 235 236 230 230 257 249 310 248 244 235 239 243 236 231 234 223 215 210 210 215 215 212 208
5 9 74 61 63 56 29 38 57 39 39 57 101 109 101 101 53 42 36 32 35 44 57 72 118 139 43 40 49 8 277 268 260 249 240 255 278 294 301 293 274 250 238 232 231 244 248 227 206 204 204 209 214 214
355 1 79 61 90 83 1 347 48 53 55 57 62 80 99 76 32 35 30 30 34 39 40 45 64 92 297 290 317 328 344 337 306 286 270 261 269 280 288 291 291 285 264 249 230 216 204 206 198 192 191 195 193 186
22 28 41 62 44 26 26 39 50 47 39 46 37 34 35 22 12 17 16 20 22 21 34 39 47 58 43 25 10 0 0 328 298 281 283 279 291 292 287 282 276 249 205 195 182 181 172 166 162 157 158 157 148 131
40 41 57 65 20 13 6 10 28 37 38 39 29 23 16 10 358 11 1 8 11 14 16 21 54 102 42 17 12 6 353 353 10 358 308 312 332 338 327 346 162 154 152 143 150 153 146 145 143 140 136 126 116 107